Location: Unspecified
(64.9000°N, 0.0000°E)
Time: 04:14:38
(UTC+00:00)

Transit 2A Rocket - Pass Details

Date: 27 June 2019
Orbit: 593 x 910 km, 66.7° (Epoch: 12 October)

Event Time Altitude Azimuth Distance (km) Brightness Sun altitude
Rises 12:06:53 0° 253° (WSW) 3,503 8.6 48.4°
Reaches altitude 10° 12:09:27 10° 255° (WSW) 2,537 8.0 48.4°
Maximum altitude 12:15:22 83° 344° (NNW) 850 6.0 48.4°
Drops below altitude 10° 12:20:50 10° 72° (ENE) 2,352 7.5 48.3°
Sets 12:23:09 0° 74° (ENE) 3,232 8.1 48.3°
